| time (UTC) | temp F | wind direction | speed MPH | gust MPH | rain 1hr in | rain 24hr in | rain mn in | humidity % | barometer mb |
| 20260503001157 | 53 | 96 | 1.0 | 4.0 | 0.00 | 0.00 | 0.00 | 52 | 1015.6 |
| 20260503000704 | 53 | 85 | 2.0 | 4.0 | 0.00 | 0.00 | 0.00 | 52 | 1015.6 |
| 20260503000157 | 53 | 118 | 1.0 | 4.0 | 0.00 | 0.00 | 0.00 | 52 | 1016.0 |
| 20260502235700 | 53 | 116 | 1.0 | 3.0 | 0.00 | 0.00 | 0.00 | 52 | 1016.0 |
| 20260502235203 | 53 | 98 | 0.0 | 3.0 | 0.00 | 0.00 | 0.00 | 52 | 1016.0 |
| 20260502234657 | 53 | 137 | 1.0 | 4.0 | 0.00 | 0.00 | 0.00 | 51 | 1016.0 |
| 20260502234201 | 54 | 94 | 2.0 | 4.0 | 0.00 | 0.00 | 0.00 | 51 | 1016.0 |
| 20260502233658 | 54 | 122 | 1.0 | 4.0 | 0.00 | 0.00 | 0.00 | 51 | 1016.0 |
| 20260502233157 | 54 | 118 | 2.0 | 5.0 | 0.00 | 0.00 | 0.00 | 51 | 1016.0 |
| 20260502232703 | 54 | 104 | 2.0 | 5.0 | 0.00 | 0.00 | 0.00 | 51 | 1016.0 |
| 20260502232157 | 54 | 83 | 1.0 | 3.0 | 0.00 | 0.00 | 0.00 | 50 | 1016.0 |
| 20260502231657 | 54 | 133 | 1.0 | 4.0 | 0.00 | 0.00 | 0.00 | 50 | 1016.0 |
| 20260502231200 | 54 | 136 | 1.0 | 3.0 | 0.00 | 0.00 | 0.00 | 50 | 1016.0 |
| 20260502230700 | 54 | 81 | 1.0 | 4.0 | 0.00 | 0.00 | 0.00 | 50 | 1016.0 |
| 20260502230200 | 54 | 93 | 2.0 | 4.0 | 0.00 | 0.00 | 0.00 | 50 | 1016.0 |
| 20260502225657 | 55 | 90 | 2.0 | 4.0 | 0.00 | 0.00 | 0.00 | 50 | 1016.0 |
| 20260502225203 | 55 | 83 | 2.0 | 4.0 | 0.00 | 0.00 | 0.00 | 49 | 1016.3 |
| 20260502224657 | 55 | 89 | 1.0 | 3.0 | 0.00 | 0.00 | 0.00 | 49 | 1016.3 |
| 20260502224200 | 55 | 112 | 1.0 | 3.0 | 0.00 | 0.00 | 0.00 | 49 | 1016.3 |
| 20260502223703 | 55 | 98 | 1.0 | 4.0 | 0.00 | 0.00 | 0.00 | 49 | 1016.3 |
| 20260502223158 | 55 | 92 | 2.0 | 4.0 | 0.00 | 0.00 | 0.00 | 48 | 1016.3 |
| 20260502222706 | 56 | 74 | 0.0 | 2.0 | 0.00 | 0.00 | 0.00 | 48 | 1016.3 |
| 20260502222157 | 56 | 171 | 1.0 | 4.0 | 0.00 | 0.00 | 0.00 | 48 | 1016.3 |
| 20260502221700 | 56 | 86 | 2.0 | 5.0 | 0.00 | 0.00 | 0.00 | 47 | 1016.3 |
| 20260502221200 | 56 | 80 | 1.0 | 5.0 | 0.00 | 0.00 | 0.00 | 46 | 1016.3 |
| 20260502220700 | 57 | 76 | 2.0 | 3.0 | 0.00 | 0.00 | 0.00 | 45 | 1016.3 |
| 20260502220200 | 57 | 82 | 2.0 | 3.0 | 0.00 | 0.00 | 0.00 | 44 | 1016.3 |
| 20260502215700 | 58 | 146 | 1.0 | 2.0 | 0.00 | 0.00 | 0.00 | 45 | 1016.3 |
| 20260502215157 | 58 | 120 | 1.0 | 4.0 | 0.00 | 0.00 | 0.00 | 45 | 1016.3 |
| 20260502214658 | 58 | 110 | 1.0 | 2.0 | 0.00 | 0.00 | 0.00 | 44 | 1016.3 |
| 20260502214200 | 58 | 159 | 1.0 | 3.0 | 0.00 | 0.00 | 0.00 | 44 | 1016.3 |
| 20260502213657 | 58 | 97 | 1.0 | 3.0 | 0.00 | 0.00 | 0.00 | 44 | 1016.3 |
| 20260502213157 | 59 | 94 | 1.0 | 3.0 | 0.00 | 0.00 | 0.00 | 44 | 1016.3 |
| 20260502212700 | 59 | 117 | 0.0 | 2.0 | 0.00 | 0.00 | 0.00 | 43 | 1016.3 |
| 20260502212203 | 59 | 146 | 1.0 | 2.0 | 0.00 | 0.00 | 0.00 | 43 | 1016.3 |
| 20260502211657 | 60 | 177 | 0.0 | 2.0 | 0.00 | 0.00 | 0.00 | 42 | 1016.3 |
| 20260502211200 | 60 | 106 | 0.0 | 2.0 | 0.00 | 0.00 | 0.00 | 42 | 1016.3 |
| 20260502210657 | 60 | 133 | 0.0 | 1.0 | 0.00 | 0.00 | 0.00 | 42 | 1016.3 |
| 20260502210200 | 60 | 176 | 1.0 | 3.0 | 0.00 | 0.00 | 0.00 | 42 | 1016.3 |
| 20260502205703 | 60 | 128 | 1.0 | 4.0 | 0.00 | 0.00 | 0.00 | 41 | 1016.3 |
| 20260502205200 | 61 | 150 | 1.0 | 3.0 | 0.00 | 0.00 | 0.00 | 41 | 1016.3 |
| 20260502204657 | 61 | 93 | 1.0 | 3.0 | 0.00 | 0.00 | 0.00 | 41 | 1016.3 |
| 20260502204201 | 62 | 127 | 1.0 | 3.0 | 0.00 | 0.00 | 0.00 | 40 | 1016.3 |
| 20260502203700 | 62 | 112 | 1.0 | 4.0 | 0.00 | 0.00 | 0.00 | 40 | 1016.7 |
| 20260502203200 | 62 | 90 | 2.0 | 4.0 | 0.00 | 0.00 | 0.00 | 40 | 1016.7 |
| 20260502202700 | 63 | 93 | 0.0 | 2.0 | 0.00 | 0.00 | 0.00 | 40 | 1016.7 |
| 20260502202157 | 63 | 75 | 1.0 | 2.0 | 0.00 | 0.00 | 0.00 | 39 | 1016.7 |
| 20260502201658 | 63 | 82 | 1.0 | 2.0 | 0.00 | 0.00 | 0.00 | 38 | 1016.7 |
| 20260502201157 | 64 | 103 | 0.0 | 2.0 | 0.00 | 0.00 | 0.00 | 38 | 1016.7 |
| 20260502200700 | 64 | 81 | 0.0 | 3.0 | 0.00 | 0.00 | 0.00 | 38 | 1016.7 |
| 20260502200203 | 64 | 79 | 2.0 | 3.0 | 0.00 | 0.00 | 0.00 | 37 | 1016.7 |
| 20260502195658 | 65 | 91 | 1.0 | 2.0 | 0.00 | 0.00 | 0.00 | 36 | 1016.7 |
| 20260502195203 | 65 | 115 | 1.0 | 2.0 | 0.00 | 0.00 | 0.00 | 35 | 1016.7 |
| 20260502194657 | 66 | 145 | 0.0 | 2.0 | 0.00 | 0.00 | 0.00 | 34 | 1016.7 |
| 20260502194157 | 66 | 105 | 0.0 | 2.0 | 0.00 | 0.00 | 0.00 | 33 | 1016.7 |
| 20260502193700 | 67 | 68 | 0.0 | 2.0 | 0.00 | 0.00 | 0.00 | 32 | 1016.7 |
| 20260502193203 | 67 | 88 | 0.0 | 2.0 | 0.00 | 0.00 | 0.00 | 31 | 1016.7 |
| 20260502192658 | 67 | 121 | 0.0 | 2.0 | 0.00 | 0.00 | 0.00 | 31 | 1016.7 |
| 20260502192157 | 68 | 103 | 0.0 | 2.0 | 0.00 | 0.00 | 0.00 | 31 | 1016.7 |
| 20260502191701 | 68 | 86 | 1.0 | 3.0 | 0.00 | 0.00 | 0.00 | 30 | 1016.7 |
| 20260502191157 | 69 | 80 | 1.0 | 3.0 | 0.00 | 0.00 | 0.00 | 29 | 1016.7 |
| 20260502190700 | 69 | 79 | 1.0 | 3.0 | 0.00 | 0.00 | 0.00 | 28 | 1016.7 |
| 20260502190157 | 70 | 85 | 1.0 | 3.0 | 0.00 | 0.00 | 0.00 | 27 | 1016.7 |
| 20260502185658 | 71 | 128 | 1.0 | 4.0 | 0.00 | 0.00 | 0.00 | 26 | 1016.7 |
| 20260502185200 | 71 | 113 | 1.0 | 4.0 | 0.00 | 0.00 | 0.00 | 25 | 1016.3 |
| 20260502184657 | 71 | 120 | 2.0 | 3.0 | 0.00 | 0.00 | 0.00 | 24 | 1016.3 |
| 20260502184200 | 72 | 151 | 1.0 | 5.0 | 0.00 | 0.00 | 0.00 | 24 | 1016.3 |
| 20260502183701 | 72 | 173 | 1.0 | 4.0 | 0.00 | 0.00 | 0.00 | 24 | 1016.3 |
| 20260502183157 | 72 | 180 | 1.0 | 3.0 | 0.00 | 0.00 | 0.00 | 23 | 1016.3 |
| 20260502182700 | 73 | 133 | 1.0 | 3.0 | 0.00 | 0.00 | 0.00 | 23 | 1016.3 |
| 20260502182203 | 73 | 183 | 1.0 | 3.0 | 0.00 | 0.00 | 0.00 | 23 | 1016.3 |
| 20260502181657 | 74 | 185 | 1.0 | 3.0 | 0.00 | 0.00 | 0.00 | 22 | 1016.3 |
| 20260502181157 | 74 | 209 | 1.0 | 4.0 | 0.00 | 0.00 | 0.00 | 21 | 1016.3 |
| 20260502180700 | 74 | 156 | 2.0 | 4.0 | 0.00 | 0.00 | 0.00 | 21 | 1016.3 |
| 20260502180201 | 74 | 158 | 1.0 | 5.0 | 0.00 | 0.00 | 0.00 | 21 | 1016.3 |
| 20260502170203 | 77 | 161 | 1.0 | 7.0 | 0.00 | 0.00 | 0.00 | 19 | 1016.7 |
| 20260502164203 | 78 | 153 | 2.0 | 7.0 | 0.00 | 0.00 | 0.00 | 18 | 1016.7 |
| 20260502163657 | 77 | 161 | 5.0 | 7.0 | 0.00 | 0.00 | 0.00 | 18 | 1016.7 |
| 20260502163203 | 77 | 177 | 3.0 | 8.0 | 0.00 | 0.00 | 0.00 | 18 | 1016.7 |
| 20260502162657 | 78 | 169 | 4.0 | 8.0 | 0.00 | 0.00 | 0.00 | 17 | 1017.1 |
| 20260502162157 | 78 | 185 | 4.0 | 10.0 | 0.00 | 0.00 | 0.00 | 17 | 1017.1 |
| 20260502161657 | 78 | 162 | 2.0 | 12.0 | 0.00 | 0.00 | 0.00 | 18 | 1017.1 |
| 20260502161200 | 78 | 171 | 5.0 | 9.0 | 0.00 | 0.00 | 0.00 | 17 | 1017.1 |
| 20260502160700 | 78 | 188 | 2.0 | 8.0 | 0.00 | 0.00 | 0.00 | 17 | 1017.1 |
| 20260502160157 | 78 | 195 | 5.0 | 9.0 | 0.00 | 0.00 | 0.00 | 16 | 1017.4 |
| 20260502151657 | 80 | 176 | 4.0 | 9.0 | 0.00 | 0.00 | 0.00 | 17 | 1017.7 |
| 20260502151200 | 79 | 184 | 2.0 | 12.0 | 0.00 | 0.00 | 0.00 | 17 | 1017.7 |
| 20260502150703 | 79 | 197 | 7.0 | 12.0 | 0.00 | 0.00 | 0.00 | 17 | 1017.7 |
| 20260502150200 | 80 | 161 | 3.0 | 11.0 | 0.00 | 0.00 | 0.00 | 17 | 1017.7 |
| 20260502130657 | 81 | 122 | 2.0 | 7.0 | 0.00 | 0.00 | 0.00 | 18 | 1019.5 |
| 20260502130157 | 80 | 176 | 3.0 | 8.0 | 0.00 | 0.00 | 0.00 | 18 | 1019.5 |
| 20260502123658 | 80 | 168 | 2.0 | 7.0 | 0.00 | 0.00 | 0.00 | 19 | 1019.8 |
| 20260502123157 | 78 | 196 | 5.0 | 7.0 | 0.00 | 0.00 | 0.00 | 19 | 1019.8 |
| 20260502122700 | 80 | 167 | 3.0 | 8.0 | 0.00 | 0.00 | 0.00 | 19 | 1019.8 |
| 20260502122200 | 79 | 94 | 2.0 | 9.0 | 0.00 | 0.00 | 0.00 | 19 | 1019.8 |
| 20260502121657 | 80 | 155 | 1.0 | 7.0 | 0.00 | 0.00 | 0.00 | 20 | 1020.2 |
| 20260502121200 | 80 | 242 | 1.0 | 5.0 | 0.00 | 0.00 | 0.00 | 20 | 1020.2 |
| 20260502120657 | 80 | 200 | 2.0 | 6.0 | 0.00 | 0.00 | 0.00 | 20 | 1020.2 |
| 20260502120158 | 80 | 146 | 3.0 | 7.0 | 0.00 | 0.00 | 0.00 | 20 | 1020.2 |
| 20260502115700 | 77 | 177 | 3.0 | 12.0 | 0.00 | 0.00 | 0.00 | 21 | 1020.5 |
| 20260502115157 | 79 | 190 | 1.0 | 9.0 | 0.00 | 0.00 | 0.00 | 20 | 1020.5 |
| 20260502114703 | 80 | 128 | 2.0 | 7.0 | 0.00 | 0.00 | 0.00 | 20 | 1020.5 |
| 20260502114157 | 78 | 134 | 3.0 | 6.0 | 0.00 | 0.00 | 0.00 | 21 | 1020.5 |
| 20260502113657 | 77 | 164 | 2.0 | 7.0 | 0.00 | 0.00 | 0.00 | 21 | 1020.5 |
| 20260502113200 | 77 | 143 | 0.0 | 7.0 | 0.00 | 0.00 | 0.00 | 22 | 1020.9 |
| 20260502112657 | 76 | 157 | 2.0 | 12.0 | 0.00 | 0.00 | 0.00 | 22 | 1020.9 |
| 20260502112200 | 76 | 250 | 2.0 | 8.0 | 0.00 | 0.00 | 0.00 | 22 | 1020.9 |
| 20260502111700 | 76 | 196 | 5.0 | 8.0 | 0.00 | 0.00 | 0.00 | 21 | 1021.3 |
| 20260502111201 | 77 | 163 | 3.0 | 8.0 | 0.00 | 0.00 | 0.00 | 23 | 1021.3 |
| 20260502110700 | 75 | 187 | 2.0 | 10.0 | 0.00 | 0.00 | 0.00 | 23 | 1021.3 |
| 20260502110203 | 74 | 198 | 5.0 | 11.0 | 0.00 | 0.00 | 0.00 | 23 | 1021.3 |
| 20260502105657 | 76 | 185 | 4.0 | 9.0 | 0.00 | 0.00 | 0.00 | 22 | 1021.3 |
| 20260502105203 | 74 | 193 | 1.0 | 12.0 | 0.00 | 0.00 | 0.00 | 24 | 1021.3 |
| 20260502104657 | 74 | 155 | 4.0 | 10.0 | 0.00 | 0.00 | 0.00 | 23 | 1021.3 |
| 20260502104200 | 76 | 155 | 2.0 | 6.0 | 0.00 | 0.00 | 0.00 | 22 | 1021.3 |
| 20260502103657 | 76 | 215 | 1.0 | 11.0 | 0.00 | 0.00 | 0.00 | 23 | 1021.3 |
| 20260502103157 | 74 | 198 | 6.0 | 11.0 | 0.00 | 0.00 | 0.00 | 23 | 1021.6 |
| 20260502102703 | 73 | 188 | 3.0 | 10.0 | 0.00 | 0.00 | 0.00 | 24 | 1021.6 |
| 20260502102206 | 73 | 178 | 7.0 | 11.0 | 0.00 | 0.00 | 0.00 | 24 | 1021.6 |
| 20260502101700 | 74 | 142 | 2.0 | 9.0 | 0.00 | 0.00 | 0.00 | 24 | 1021.9 |
| 20260502101158 | 73 | 186 | 4.0 | 9.0 | 0.00 | 0.00 | 0.00 | 26 | 1021.9 |
| 20260502100657 | 73 | 186 | 4.0 | 10.0 | 0.00 | 0.00 | 0.00 | 26 | 1021.9 |
| 20260502100203 | 73 | 179 | 6.0 | 11.0 | 0.00 | 0.00 | 0.00 | 25 | 1021.9 |
| 20260502091157 | 70 | 163 | 2.0 | 12.0 | 0.00 | 0.00 | 0.00 | 27 | 1022.3 |
| 20260502090657 | 69 | 168 | 8.0 | 12.0 | 0.00 | 0.00 | 0.00 | 27 | 1022.6 |
| 20260502090157 | 70 | 192 | 6.0 | 10.0 | 0.00 | 0.00 | 0.00 | 27 | 1022.6 |
| 20260502071203 | 63 | 75 | 1.0 | 2.0 | 0.00 | 0.00 | 0.00 | 37 | 1023.4 |
| 20260502070700 | 64 | 116 | 0.0 | 2.0 | 0.00 | 0.00 | 0.00 | 37 | 1023.4 |
| 20260502070158 | 63 | 165 | 0.0 | 3.0 | 0.00 | 0.00 | 0.00 | 38 | 1023.4 |
| 20260502065703 | 64 | 130 | 0.0 | 3.0 | 0.00 | 0.00 | 0.00 | 38 | 1023.4 |
| 20260502065157 | 62 | 97 | 0.0 | 2.0 | 0.00 | 0.00 | 0.00 | 40 | 1023.4 |
| 20260502064703 | 62 | 139 | 0.0 | 2.0 | 0.00 | 0.00 | 0.00 | 40 | 1023.4 |
| 20260502064157 | 61 | 75 | 1.0 | 2.0 | 0.00 | 0.00 | 0.00 | 41 | 1023.4 |
| 20260502063700 | 59 | 84 | 0.0 | 2.0 | 0.00 | 0.00 | 0.00 | 43 | 1023.4 |
| 20260502063157 | 60 | 124 | 1.0 | 2.0 | 0.00 | 0.00 | 0.00 | 43 | 1023.4 |
| 20260502062657 | 57 | 158 | 0.0 | 1.0 | 0.00 | 0.00 | 0.00 | 46 | 1023.4 |
| 20260502062157 | 57 | 335 | 0.0 | 2.0 | 0.00 | 0.00 | 0.00 | 46 | 1023.4 |
| 20260502061700 | 56 | 4 | 0.0 | 2.0 | 0.00 | 0.00 | 0.00 | 48 | 1023.4 |
| 20260502061158 | 57 | 86 | 0.0 | 2.0 | 0.00 | 0.00 | 0.00 | 47 | 1023.4 |
| 20260502060704 | 57 | 115 | 0.0 | 1.0 | 0.00 | 0.00 | 0.00 | 48 | 1023.4 |
| 20260502060157 | 55 | 95 | 0.0 | 1.0 | 0.00 | 0.00 | 0.00 | 50 | 1023.4 |
| 20260502055700 | 54 | 78 | 0.0 | 3.0 | 0.00 | 0.00 | 0.00 | 52 | 1023.7 |
| 20260502055157 | 54 | 132 | 0.0 | 2.0 | 0.00 | 0.00 | 0.00 | 53 | 1023.7 |
| 20260502054657 | 53 | 86 | 1.0 | 2.0 | 0.00 | 0.00 | 0.00 | 55 | 1023.7 |
| 20260502054200 | 51 | 98 | 0.0 | 2.0 | 0.00 | 0.00 | 0.00 | 57 | 1023.7 |
| 20260502053706 | 51 | 90 | 1.0 | 2.0 | 0.00 | 0.00 | 0.00 | 58 | 1023.7 |
| 20260502053158 | 50 | 329 | 0.0 | 2.0 | 0.00 | 0.00 | 0.00 | 59 | 1023.7 |
| 20260502052700 | 50 | 347 | 0.0 | 2.0 | 0.00 | 0.00 | 0.00 | 59 | 1023.7 |
| 20260502052157 | 50 | 106 | 0.0 | 2.0 | 0.00 | 0.00 | 0.00 | 61 | 1023.7 |
| 20260502051700 | 49 | 66 | 1.0 | 2.0 | 0.00 | 0.00 | 0.00 | 63 | 1023.7 |
| 20260502051203 | 47 | 119 | 0.0 | 2.0 | 0.00 | 0.00 | 0.00 | 66 | 1023.7 |
| 20260502050657 | 46 | 319 | 0.0 | 3.0 | 0.00 | 0.00 | 0.00 | 68 | 1023.7 |
| 20260502050203 | 45 | 112 | 2.0 | 3.0 | 0.00 | 0.00 | 0.00 | 70 | 1023.7 |
| 20260502045700 | 44 | 87 | 1.0 | 4.0 | 0.00 | 0.00 | 0.00 | 73 | 1023.7 |
| 20260502045157 | 44 | 79 | 1.0 | 3.0 | 0.00 | 0.00 | 0.00 | 74 | 1023.4 |
| 20260502044700 | 43 | 342 | 0.0 | 2.0 | 0.00 | 0.00 | 0.00 | 76 | 1023.4 |
| 20260502044157 | 43 | 353 | 0.0 | 1.0 | 0.00 | 0.00 | 0.00 | 76 | 1023.4 |
| 20260502043657 | 43 | 199 | 0.0 | 1.0 | 0.00 | 0.00 | 0.00 | 76 | 1023.4 |
| 20260502043200 | 43 | 220 | 0.0 | 2.0 | 0.00 | 0.00 | 0.00 | 76 | 1023.7 |
| 20260502042657 | 43 | 239 | 0.0 | 2.0 | 0.00 | 0.00 | 0.00 | 76 | 1023.7 |
| 20260502042158 | 43 | 186 | 0.0 | 1.0 | 0.00 | 0.00 | 0.00 | 76 | 1023.7 |
| 20260502041700 | 43 | 206 | 0.0 | 1.0 | 0.00 | 0.00 | 0.00 | 76 | 1023.7 |
| 20260502041157 | 43 | 251 | 0.0 | 2.0 | 0.00 | 0.00 | 0.00 | 76 | 1023.7 |
| 20260502040657 | 43 | 241 | 1.0 | 2.0 | 0.00 | 0.00 | 0.00 | 76 | 1023.7 |
| 20260502040200 | 43 | 178 | 0.0 | 1.0 | 0.00 | 0.00 | 0.00 | 76 | 1023.4 |
| 20260502035700 | 43 | 231 | 0.0 | 2.0 | 0.00 | 0.00 | 0.00 | 75 | 1023.7 |
| 20260502035200 | 43 | 234 | 0.0 | 3.0 | 0.00 | 0.00 | 0.00 | 75 | 1023.4 |
| 20260502034703 | 44 | 229 | 0.0 | 2.0 | 0.00 | 0.00 | 0.00 | 75 | 1023.4 |
| 20260502034157 | 44 | 257 | 1.0 | 2.0 | 0.00 | 0.00 | 0.00 | 76 | 1023.4 |
| 20260502033700 | 44 | 168 | 0.0 | 1.0 | 0.00 | 0.00 | 0.00 | 76 | 1023.4 |
| 20260502033203 | 44 | 183 | 0.0 | 1.0 | 0.00 | 0.00 | 0.00 | 76 | 1023.4 |
| 20260502032700 | 44 | 208 | 1.0 | 2.0 | 0.00 | 0.00 | 0.00 | 76 | 1023.7 |
| 20260502032200 | 43 | 179 | 1.0 | 2.0 | 0.00 | 0.00 | 0.00 | 77 | 1023.7 |
| 20260502031657 | 43 | 220 | 0.0 | 1.0 | 0.00 | 0.00 | 0.00 | 77 | 1023.7 |
| 20260502031157 | 43 | 288 | 0.0 | 1.0 | 0.00 | 0.00 | 0.00 | 76 | 1023.7 |
| 20260502030700 | 43 | 286 | 1.0 | 2.0 | 0.00 | 0.00 | 0.00 | 76 | 1023.7 |
| 20260502030200 | 43 | 304 | 0.0 | 2.0 | 0.00 | 0.00 | 0.00 | 76 | 1023.7 |
| 20260502025706 | 44 | 290 | 0.0 | 2.0 | 0.00 | 0.00 | 0.00 | 76 | 1023.7 |
| 20260502025158 | 44 | 294 | 0.0 | 1.0 | 0.00 | 0.00 | 0.00 | 75 | 1023.7 |
| 20260502024657 | 44 | 280 | 0.0 | 1.0 | 0.00 | 0.00 | 0.00 | 75 | 1023.7 |
| 20260502024157 | 44 | 229 | 0.0 | 1.0 | 0.00 | 0.00 | 0.00 | 75 | 1023.7 |
| 20260502023706 | 44 | 225 | 0.0 | 1.0 | 0.00 | 0.00 | 0.00 | 75 | 1023.7 |
| 20260502023157 | 44 | 318 | 0.0 | 1.0 | 0.00 | 0.00 | 0.00 | 75 | 1023.7 |
| 20260502022657 | 44 | 280 | 0.0 | 2.0 | 0.00 | 0.00 | 0.00 | 75 | 1023.7 |
| 20260502022200 | 44 | 281 | 1.0 | 1.0 | 0.00 | 0.00 | 0.00 | 75 | 1023.7 |
| 20260502021700 | 44 | 283 | 0.0 | 2.0 | 0.00 | 0.00 | 0.00 | 75 | 1023.7 |
| 20260502021157 | 44 | 321 | 1.0 | 2.0 | 0.00 | 0.00 | 0.00 | 75 | 1023.7 |
| 20260502020703 | 44 | 220 | 0.0 | 2.0 | 0.00 | 0.00 | 0.00 | 74 | 1023.7 |
| 20260502020158 | 44 | 295 | 1.0 | 2.0 | 0.00 | 0.00 | 0.00 | 74 | 1023.7 |
| 20260502015701 | 44 | 301 | 0.0 | 2.0 | 0.00 | 0.00 | 0.00 | 74 | 1023.7 |
| 20260502015200 | 45 | 284 | 1.0 | 2.0 | 0.00 | 0.00 | 0.00 | 73 | 1023.7 |
| 20260502014700 | 45 | 291 | 1.0 | 2.0 | 0.00 | 0.00 | 0.00 | 73 | 1023.7 |
| 20260502014200 | 45 | 316 | 1.0 | 3.0 | 0.00 | 0.00 | 0.00 | 74 | 1023.7 |
| 20260502013657 | 45 | 340 | 0.0 | 2.0 | 0.00 | 0.00 | 0.00 | 73 | 1023.7 |
| 20260502013157 | 45 | 251 | 0.0 | 2.0 | 0.00 | 0.00 | 0.00 | 73 | 1024.0 |
| 20260502012703 | 45 | 212 | 1.0 | 2.0 | 0.00 | 0.00 | 0.00 | 73 | 1024.0 |
| 20260502012203 | 45 | 236 | 1.0 | 1.0 | 0.00 | 0.00 | 0.00 | 73 | 1024.0 |
| 20260502011657 | 45 | 326 | 1.0 | 2.0 | 0.00 | 0.00 | 0.00 | 73 | 1024.0 |
| 20260502011206 | 45 | 231 | 0.0 | 2.0 | 0.00 | 0.00 | 0.00 | 73 | 1024.0 |
| 20260502010657 | 45 | 329 | 0.0 | 2.0 | 0.00 | 0.00 | 0.00 | 72 | 1024.0 |
| 20260502010157 | 46 | 298 | 0.0 | 2.0 | 0.00 | 0.00 | 0.00 | 72 | 1024.0 |
| 20260502005657 | 46 | 319 | 0.0 | 3.0 | 0.00 | 0.00 | 0.00 | 71 | 1024.0 |
| 20260502005157 | 46 | 306 | 1.0 | 3.0 | 0.00 | 0.00 | 0.00 | 70 | 1024.0 |
| 20260502004703 | 46 | 306 | 1.0 | 2.0 | 0.00 | 0.00 | 0.00 | 70 | 1024.0 |
| 20260502004157 | 47 | 276 | 1.0 | 2.0 | 0.00 | 0.00 | 0.00 | 69 | 1024.0 |
| 20260502003657 | 47 | 254 | 0.0 | 2.0 | 0.00 | 0.00 | 0.00 | 67 | 1024.0 |
| 20260502003157 | 47 | 289 | 0.0 | 2.0 | 0.00 | 0.00 | 0.00 | 66 | 1024.0 |
| 20260502002657 | 48 | 102 | 0.0 | 2.0 | 0.00 | 0.00 | 0.00 | 66 | 1024.0 |
| 20260502002200 | 48 | 43 | 0.0 | 2.0 | 0.00 | 0.00 | 0.00 | 67 | 1024.0 |
| 20260502001657 | 48 | 172 | 1.0 | 2.0 | 0.00 | 0.00 | 0.00 | 67 | 1024.0 |